Location: Avully
(45.9633°N, 6.0228°E)
Time: 04:23:01
(UTC+00:00)

Cosmos 2360 Rocket - Pass Details

Date: 13 August 2024
Orbit: 834 x 843 km, 71.0° (Epoch: 16 September)

Event Time Altitude Azimuth Distance (km) Brightness Sun altitude
Exits shadow 22:26:18 17° 75° (ENE) 2,030 4.1 -27.5°
Drops below altitude 10° 22:28:20 10° 56° (NE) 2,467 4.8 -27.6°
Sets 22:31:24 0° 39° (NE) 3,405 5.8 -27.8°
